Weather History for Piney Island, NC

Change the Weather History Date:

Tuesday, May 7, 2013

  Actual Average (KMRH) Record (KMRH)
Temperature  
Mean Temperature 67 °F -  
Max Temperature 75 °F 75 °F 86 °F (1955)
Min Temperature 57 °F 57 °F 41 °F (1970)
Cooling Degree Days 2    
Growing Degree Days 17 (Base 50)    
Moisture  
Dew Point 58 °F    
Average Humidity 80    
Maximum Humidity 100    
Minimum Humidity 44    
Precipitation  
Precipitation 0.06 in - - ()
Sea Level Pressure  
Sea Level Pressure 29.94 in    
Wind  
Wind Speed 5 mph (SSW)    
Max Wind Speed 14 mph    
Max Gust Speed 22 mph    
Visibility 10 miles    
Events Rain    
Averages and records for this station are not official NWS values.
T = Trace of Precipitation, MM = Missing Value Source: NWS Daily Summary

Daily Weather History Graph

Daily Weather History Graph

Search for Another Location

Airport:

Trip Planner

Search our weather history database for the weather conditions in past years. The results will help you decide how hot, cold, wet, or windy it might be!

Date:

Astronomy

May. 07, 2013 Rise Set
Actual Time 6:08 AM EDT 7:56 PM EDT
Civil Twilight 5:41 AM EDT 8:24 PM EDT
Nautical Twilight 5:08 AM EDT 8:57 PM EDT
Astronomical Twilight 4:32 AM EDT 9:32 PM EDT
Moon 4:36 AM EDT (5/7) 5:57 PM EDT (5/7)
Length of Visible Light 14h 42m
Length of Day
13h 47m
Waning Crescent, 5% of the Moon is Illuminated
May 7
Waning Crescent
May 9
New
May 18
First Quarter
May 25
Full
May 31
Last Quarter

Hourly Weather History & Observations

Time (EDT) Temp. Dew Point Humidity Pressure Visibility Wind Dir Wind Speed Gust Speed Precip Events Conditions
12:56 AM 64.9 °F 64.0 °F 97% 29.91 in 8.0 mi SSW 4.6 mph - 0.01 in   Clear
1:33 AM 64.4 °F 62.6 °F 94% 29.90 in 9.0 mi SSW 3.5 mph - N/A   Mostly Cloudy
1:42 AM 64.4 °F 62.6 °F 94% 29.89 in 9.0 mi SSW 3.5 mph - N/A   Mostly Cloudy
1:56 AM 64.0 °F 63.0 °F 96% 29.90 in 9.0 mi SW 3.5 mph - N/A   Scattered Clouds
2:03 AM 64.4 °F 62.6 °F 94% 29.89 in 9.0 mi SW 5.8 mph - N/A   Mostly Cloudy
2:16 AM 62.6 °F 62.6 °F 100% 29.89 in 8.0 mi SW 4.6 mph - N/A   Partly Cloudy
2:56 AM 63.0 °F 61.0 °F 93% 29.89 in 10.0 mi WSW 5.8 mph - N/A   Scattered Clouds
3:56 AM 63.0 °F 60.1 °F 90% 29.90 in 10.0 mi West 3.5 mph - N/A   Mostly Cloudy
4:56 AM 63.0 °F 60.1 °F 90% 29.90 in 10.0 mi Calm Calm - N/A   Scattered Clouds
5:56 AM 62.1 °F 59.0 °F 90% 29.91 in 10.0 mi Calm Calm - N/A   Clear
6:56 AM 64.0 °F 61.0 °F 90% 29.94 in 9.0 mi Calm Calm - N/A   Overcast
7:56 AM 66.0 °F 61.0 °F 84% 29.93 in 10.0 mi ESE 4.6 mph - N/A   Clear
8:56 AM 68.0 °F 57.0 °F 68% 29.95 in 10.0 mi SSW 10.4 mph - N/A   Clear
9:56 AM 70.0 °F 57.9 °F 65% 29.96 in 10.0 mi SSW 11.5 mph - N/A   Clear
10:56 AM 73.0 °F 55.9 °F 55% 29.96 in 10.0 mi Variable 4.6 mph - N/A   Clear
11:56 AM 73.9 °F 54.0 °F 50% 29.96 in 10.0 mi SSW 10.4 mph - N/A   Partly Cloudy
12:56 PM 75.0 °F 52.0 °F 44% 29.94 in 10.0 mi South 9.2 mph - N/A   Clear
1:56 PM 75.0 °F 53.1 °F 46% 29.93 in 10.0 mi South 13.8 mph 19.6 mph N/A   Scattered Clouds
2:56 PM 69.1 °F 55.9 °F 63% 29.95 in 10.0 mi SSW 13.8 mph 21.9 mph 0.00 in Rain Light Rain
3:56 PM 63.0 °F 55.0 °F 75% 29.94 in 8.0 mi South 10.4 mph - 0.01 in Rain Light Rain
4:56 PM 60.1 °F 55.0 °F 83% 29.94 in 10.0 mi SSE 10.4 mph 17.3 mph 0.04 in   Overcast
5:56 PM 63.0 °F 55.0 °F 75% 29.94 in 10.0 mi SSW 10.4 mph - N/A   Clear
6:56 PM 64.9 °F 55.0 °F 70% 29.94 in 10.0 mi South 9.2 mph - N/A   Clear
7:56 PM 61.0 °F 54.0 °F 78% 29.96 in 10.0 mi South 4.6 mph - N/A   Clear
8:56 PM 59.0 °F 55.0 °F 87% 29.97 in 10.0 mi South 3.5 mph - N/A   Clear
9:56 PM 59.0 °F 55.0 °F 87% 29.99 in 10.0 mi South 3.5 mph - N/A   Clear
10:56 PM 59.0 °F 55.0 °F 87% 30.00 in 10.0 mi SSE 3.5 mph - N/A   Clear
11:56 PM 57.9 °F 55.0 °F 90% 30.00 in 10.0 mi SSW 4.6 mph - N/A   Clear